Weather History for KNJM - September, 2013

Change the Weather History Date:

Saturday, September 28, 2013

  Actual Average (KNKT) Record (KNKT)
Temperature  
Mean Temperature 70 °F -  
Max Temperature 79 °F 77 °F 90 °F (1998)
Min Temperature 63 °F 60 °F 51 °F (2001)
Cooling Degree Days 6    
Growing Degree Days 20 (Base 50)    
Moisture  
Dew Point 57 °F    
Average Humidity 65    
Maximum Humidity 81    
Minimum Humidity 48    
Precipitation  
Precipitation 0.00 in - - ()
Sea Level Pressure  
Sea Level Pressure 30.14 in    
Wind  
Wind Speed 11 mph (NNE)    
Max Wind Speed 16 mph    
Max Gust Speed 24 mph    
Visibility 10 miles    
Events      
Averages and records for this station are not official NWS values.
T = Trace of Precipitation, MM = Missing Value Source: NWS Daily Summary

Daily Weather History Graph

Daily Weather History Graph

Search for Another Location

Airport or City:

Trip Planner

Search our weather history database for the weather conditions in past years. The results will help you decide how hot, cold, wet, or windy it might be!

Date:

Astronomy

Sep. 28, 2013 Rise Set
Actual Time 7:00 AM EDT 6:56 PM EDT
Civil Twilight 6:35 AM EDT 7:21 PM EDT
Nautical Twilight 6:06 AM EDT 7:50 PM EDT
Astronomical Twilight 5:36 AM EDT 8:19 PM EDT
Moon 12:58 AM EDT (9/28) 3:02 PM EDT (9/28)
Length of Visible Light 12h 45m
Length of Day
11h 55m
Last Quarter, 36% of the Moon is Illuminated
Sep 28
Last Quarter
Oct 4
New
Oct 11
First Quarter
Oct 18
Full
Oct 26
Last Quarter

Hourly Weather History & Observations

Time (EDT) Temp. Dew Point Humidity Pressure Visibility Wind Dir Wind Speed Gust Speed Precip Events Conditions
12:57 AM 66.9 °F 55.9 °F 68% 30.13 in 10.0 mi NNE 11.5 mph - N/A   Overcast
1:57 AM 66.9 °F 55.9 °F 68% 30.12 in 10.0 mi NNE 8.1 mph - N/A   Overcast
2:57 AM 66.0 °F 57.0 °F 73% 30.11 in 10.0 mi NNE 8.1 mph - N/A   Overcast
3:57 AM 64.9 °F 57.0 °F 75% 30.10 in 10.0 mi NNE 11.5 mph - N/A   Scattered Clouds
4:57 AM 64.9 °F 57.0 °F 75% 30.11 in 10.0 mi NNE 10.4 mph - N/A   Overcast
5:57 AM 64.0 °F 57.0 °F 78% 30.12 in 10.0 mi NNE 10.4 mph - N/A   Scattered Clouds
6:57 AM 63.0 °F 57.0 °F 81% 30.14 in 10.0 mi NNE 10.4 mph - N/A   Clear
7:57 AM 64.0 °F 57.0 °F 78% 30.15 in 10.0 mi NNE 10.4 mph - N/A   Clear
8:57 AM 66.9 °F 57.9 °F 73% 30.16 in 10.0 mi North 10.4 mph 18.4 mph N/A   Clear
9:57 AM 71.1 °F 59.0 °F 66% 30.17 in 10.0 mi NNE 15.0 mph - N/A   Clear
10:57 AM 73.9 °F 59.0 °F 59% 30.18 in 10.0 mi NNE 11.5 mph 20.7 mph N/A   Scattered Clouds
11:17 AM 73.9 °F 59.0 °F 59% 30.17 in 10.0 mi NNE 15.0 mph 21.9 mph N/A   Mostly Cloudy
11:57 AM 73.9 °F 57.9 °F 57% 30.18 in 10.0 mi NNE 13.8 mph 20.7 mph N/A   Mostly Cloudy
12:04 PM 75.9 °F 57.9 °F 54% 30.17 in 10.0 mi NE 16.1 mph 20.7 mph N/A   Scattered Clouds
12:57 PM 77.0 °F 57.0 °F 50% 30.17 in 10.0 mi ENE 15.0 mph 24.2 mph N/A   Scattered Clouds
1:57 PM 77.0 °F 57.0 °F 50% 30.15 in 10.0 mi NE 12.7 mph - N/A   Mostly Cloudy
2:57 PM 78.1 °F 57.0 °F 48% 30.14 in 10.0 mi NE 13.8 mph 19.6 mph N/A   Scattered Clouds
3:57 PM 77.0 °F 57.9 °F 52% 30.12 in 10.0 mi ENE 16.1 mph - N/A   Scattered Clouds
4:57 PM 77.0 °F 55.9 °F 48% 30.12 in 10.0 mi NNE 10.4 mph 18.4 mph N/A   Clear
5:57 PM 73.9 °F 57.0 °F 55% 30.14 in 10.0 mi NE 11.5 mph - N/A   Clear
6:57 PM 72.0 °F 57.0 °F 59% 30.14 in 10.0 mi NE 6.9 mph - N/A   Scattered Clouds
7:57 PM 69.1 °F 57.9 °F 68% 30.14 in 10.0 mi North 5.8 mph - N/A   Clear
8:57 PM 68.0 °F 57.9 °F 70% 30.15 in 10.0 mi North 9.2 mph - N/A   Mostly Cloudy
9:57 PM 66.9 °F 57.9 °F 73% 30.15 in 10.0 mi NNE 8.1 mph - N/A   Clear
10:57 PM 66.0 °F 57.9 °F 75% 30.15 in 10.0 mi NNE 6.9 mph - N/A   Clear
11:57 PM 64.9 °F 59.0 °F 81% 30.14 in 10.0 mi North 4.6 mph - N/A   Clear